Alakanuk, AK

7:44 PM AKDT on August 27, 2016 (GMT -0800)
Emmonak

Weather History for PAEM - February, 2013

Change the Weather History Date:

Thursday, February 7, 2013

  Actual Average Record
Temperature  
Mean Temperature 4 °F -  
Max Temperature 6 °F 13 °F 35 °F (2000)
Min Temperature 1 °F 3 °F -25 °F (2004)
Degree Days  
Heating Degree Days 62    
Moisture  
Dew Point -1 °F    
Average Humidity 81    
Maximum Humidity 85    
Minimum Humidity 72    
Precipitation  
Precipitation 0.00 in - - ()
Sea Level Pressure  
Sea Level Pressure 29.39 in    
Wind  
Wind Speed 20 mph (NNE)    
Max Wind Speed 26 mph    
Max Gust Speed 32 mph    
Visibility 8 miles    
Events      
Averages and records for this station are not official NWS values.
T = Trace of Precipitation, MM = Missing Value Source: NWS Daily Summary

Daily Weather History Graph

Daily Weather History Graph

Search for Another Location

Airport or City:

Trip Planner

Search our weather history database for the weather conditions in past years. The results will help you decide how hot, cold, wet, or windy it might be!

Date:

Astronomy

Feb. 07, 2013 Rise Set
Actual Time 10:09 AM AKST 6:15 PM AKST
Civil Twilight 9:18 AM AKST 7:06 PM AKST
Nautical Twilight 8:24 AM AKST 8:01 PM AKST
Astronomical Twilight 7:31 AM AKST 8:53 PM AKST
Moon 8:32 AM AKST (2/7) 3:25 PM AKST (2/7)
Length of Visible Light 9h 47m
Length of Day
8h 05m
Waning Crescent, 8% of the Moon is Illuminated
Feb 7
Waning Crescent
Feb 9
New
Feb 17
First Quarter
Feb 25
Full
Mar 4
Last Quarter

Hourly Weather History & Observations

Time (AKST) Temp. Windchill Dew Point Humidity Pressure Visibility Wind Dir Wind Speed Gust Speed Precip Events Conditions
12:16 AM 3.2 °F -15.9 °F -0.4 °F 85% 29.57 in 10.0 mi NNE 16.1 mph - N/A   Clear
12:36 AM 3.2 °F -15.9 °F -0.4 °F 85% 29.56 in 10.0 mi NNE 16.1 mph - N/A   Clear
12:56 AM 3.2 °F -17.1 °F -0.4 °F 85% 29.55 in 10.0 mi NNE 18.4 mph 23.0 mph N/A   Clear
1:16 AM 5.0 °F -15.2 °F -0.4 °F 78% 29.55 in 10.0 mi NNE 19.6 mph - N/A   Mostly Cloudy
1:36 AM 5.0 °F -14.7 °F -0.4 °F 78% 29.55 in 10.0 mi NNE 18.4 mph 24.2 mph N/A   Overcast
1:56 AM 5.0 °F -16.2 °F -0.4 °F 78% 29.53 in 10.0 mi NNE 21.9 mph - N/A   Scattered Clouds
2:16 AM 5.0 °F -16.7 °F -0.4 °F 78% 29.52 in 10.0 mi NNE 23.0 mph 29.9 mph N/A   Mostly Cloudy
2:36 AM 5.0 °F -16.2 °F -0.4 °F 78% 29.51 in 9.0 mi NE 21.9 mph 27.6 mph N/A   Overcast
2:56 AM 5.0 °F -17.1 °F -0.4 °F 78% 29.50 in 6.0 mi NNE 24.2 mph - N/A   Overcast
3:16 AM 5.0 °F -16.2 °F -0.4 °F 78% 29.49 in 4.0 mi NNE 21.9 mph 28.8 mph N/A   Overcast
3:36 AM 3.2 °F -19.0 °F -0.4 °F 85% 29.48 in 5.0 mi NNE 23.0 mph 28.8 mph N/A   Overcast
3:56 AM 3.2 °F -19.0 °F -0.4 °F 85% 29.48 in 5.0 mi NNE 23.0 mph 29.9 mph N/A   Mostly Cloudy
4:16 AM 3.2 °F -18.6 °F -0.4 °F 85% 29.47 in 5.0 mi NNE 21.9 mph - N/A   Mostly Cloudy
4:36 AM 3.2 °F -18.1 °F -0.4 °F 85% 29.46 in 5.0 mi NNE 20.7 mph - N/A   Overcast
4:56 AM 3.2 °F -18.1 °F -0.4 °F 85% 29.45 in 5.0 mi NNE 20.7 mph 27.6 mph N/A   Overcast
5:16 AM 3.2 °F -18.6 °F -0.4 °F 85% 29.44 in 5.0 mi NNE 21.9 mph 26.5 mph N/A   Overcast
5:36 AM 3.2 °F -18.6 °F -0.4 °F 85% 29.43 in 6.0 mi NNE 21.9 mph 27.6 mph N/A   Overcast
5:56 AM 3.2 °F -19.0 °F -0.4 °F 85% 29.42 in 5.0 mi NNE 23.0 mph 27.6 mph N/A   Overcast
6:16 AM 3.2 °F -18.6 °F -0.4 °F 85% 29.42 in 5.0 mi NNE 21.9 mph 28.8 mph N/A   Overcast
6:36 AM 3.2 °F -19.5 °F -0.4 °F 85% 29.41 in 5.0 mi NNE 24.2 mph - N/A   Overcast
6:56 AM 3.2 °F -19.0 °F -0.4 °F 85% 29.40 in 5.0 mi NNE 23.0 mph 29.9 mph N/A   Overcast
7:16 AM 3.2 °F -20.3 °F -0.4 °F 85% 29.39 in 5.0 mi NNE 26.5 mph - N/A   Overcast
7:36 AM 3.2 °F -20.3 °F -0.4 °F 85% 29.38 in 4.0 mi NNE 26.5 mph 31.1 mph N/A   Overcast
7:56 AM 3.2 °F -20.3 °F -0.4 °F 85% 29.37 in 4.0 mi NNE 26.5 mph 29.9 mph N/A   Overcast
8:16 AM 3.2 °F -19.5 °F -0.4 °F 85% 29.36 in 4.0 mi NNE 24.2 mph 32.2 mph N/A   Overcast
8:36 AM 3.2 °F -19.0 °F -0.4 °F 85% 29.36 in 4.0 mi NNE 23.0 mph 32.2 mph N/A   Overcast
8:56 AM 3.2 °F -19.9 °F -0.4 °F 85% 29.36 in 4.0 mi NNE 25.3 mph 31.1 mph N/A   Overcast
9:16 AM 3.2 °F -19.0 °F -0.4 °F 85% 29.36 in 4.0 mi NNE 23.0 mph 27.6 mph N/A   Overcast
9:36 AM 3.2 °F -19.5 °F -0.4 °F 85% 29.36 in 5.0 mi NNE 24.2 mph 31.1 mph N/A   Overcast
9:56 AM 5.0 °F -15.7 °F -0.4 °F 78% 29.37 in 5.0 mi NE 20.7 mph 28.8 mph N/A   Overcast
10:16 AM 3.2 °F -19.5 °F -0.4 °F 85% 29.35 in 3.0 mi NNE 24.2 mph 27.6 mph N/A   Overcast
10:36 AM 5.0 °F -16.2 °F -0.4 °F 78% 29.35 in 5.0 mi NNE 21.9 mph 26.5 mph N/A   Overcast
10:56 AM 5.0 °F -16.7 °F -0.4 °F 78% 29.35 in 6.0 mi NNE 23.0 mph 26.5 mph N/A   Overcast
11:16 AM 5.0 °F -15.7 °F -0.4 °F 78% 29.35 in 5.0 mi NE 20.7 mph - N/A   Overcast
11:36 AM 5.0 °F -15.7 °F -0.4 °F 78% 29.35 in 5.0 mi NE 20.7 mph 27.6 mph N/A   Overcast
11:56 AM 5.0 °F -16.2 °F -0.4 °F 78% 29.35 in 5.0 mi NNE 21.9 mph - N/A   Overcast
12:16 PM 5.0 °F -17.1 °F -0.4 °F 78% 29.35 in 5.0 mi NNE 24.2 mph - N/A   Overcast
12:36 PM 5.0 °F -15.2 °F -0.4 °F 78% 29.35 in 5.0 mi NNE 19.6 mph 27.6 mph N/A   Overcast
12:56 PM 6.8 °F -13.8 °F -0.4 °F 72% 29.34 in 7.0 mi NNE 21.9 mph 25.3 mph N/A   Overcast
1:16 PM 6.8 °F -14.3 °F -0.4 °F 72% 29.33 in 7.0 mi NNE 23.0 mph 27.6 mph N/A   Overcast
1:36 PM 6.8 °F -14.3 °F -0.4 °F 72% 29.33 in 6.0 mi NNE 23.0 mph 29.9 mph N/A   Overcast
1:56 PM 6.8 °F -14.7 °F -0.4 °F 72% 29.32 in 7.0 mi NNE 24.2 mph 28.8 mph N/A   Overcast
2:16 PM 6.8 °F -13.8 °F -0.4 °F 72% 29.32 in 5.0 mi NNE 21.9 mph 29.9 mph N/A   Overcast
2:36 PM 6.8 °F -12.9 °F -0.4 °F 72% 29.32 in 7.0 mi NNE 19.6 mph 29.9 mph N/A   Overcast
2:56 PM 6.8 °F -13.4 °F -0.4 °F 72% 29.32 in 10.0 mi NNE 20.7 mph 25.3 mph N/A   Mostly Cloudy
3:16 PM 6.8 °F -11.8 °F -0.4 °F 72% 29.32 in 10.0 mi NNE 17.3 mph 24.2 mph N/A   Clear
3:36 PM 5.0 °F -15.2 °F -0.4 °F 78% 29.31 in 10.0 mi NNE 19.6 mph 25.3 mph N/A   Partly Cloudy
3:56 PM 5.0 °F -15.7 °F -0.4 °F 78% 29.31 in 10.0 mi NNE 20.7 mph 24.2 mph N/A   Scattered Clouds
4:16 PM 5.0 °F -14.7 °F -0.4 °F 78% 29.32 in 10.0 mi NNE 18.4 mph - N/A   Scattered Clouds
4:36 PM 3.2 °F -16.5 °F -0.4 °F 85% 29.32 in 10.0 mi NNE 17.3 mph - N/A   Mostly Cloudy
4:56 PM 3.2 °F -17.1 °F -0.4 °F 85% 29.32 in 10.0 mi NNE 18.4 mph 21.9 mph N/A   Mostly Cloudy
5:16 PM 3.2 °F -16.5 °F -0.4 °F 85% 29.33 in 10.0 mi NNE 17.3 mph - N/A   Partly Cloudy
5:36 PM 3.2 °F -15.9 °F -0.4 °F 85% 29.33 in 10.0 mi NNE 16.1 mph - N/A   Clear
5:56 PM 3.2 °F -14.6 °F -0.4 °F 85% 29.34 in 10.0 mi NNE 13.8 mph - N/A   Clear
6:16 PM 3.2 °F -15.3 °F -2.2 °F 78% 29.34 in 10.0 mi NNE 15.0 mph - N/A   Clear
6:36 PM 3.2 °F -15.3 °F -2.2 °F 78% 29.35 in 10.0 mi NNE 15.0 mph - N/A   Clear
6:56 PM 3.2 °F -15.3 °F -2.2 °F 78% 29.35 in 10.0 mi NNE 15.0 mph - N/A   Clear
7:16 PM 3.2 °F -14.6 °F -0.4 °F 85% 29.35 in 10.0 mi NNE 13.8 mph - N/A   Partly Cloudy
7:36 PM 3.2 °F -12.2 °F -2.2 °F 78% 29.36 in 10.0 mi NNE 10.4 mph - N/A   Partly Cloudy
7:56 PM 1.4 °F -15.3 °F -2.2 °F 85% 29.36 in 10.0 mi NNE 11.5 mph - N/A   Clear
8:16 PM 1.4 °F -16.9 °F -2.2 °F 85% 29.36 in 10.0 mi NNE 13.8 mph - N/A   Clear
8:36 PM 1.4 °F -18.2 °F -2.2 °F 85% 29.36 in 10.0 mi NNE 16.1 mph 20.7 mph N/A   Clear
8:56 PM 1.4 °F -17.6 °F -2.2 °F 85% 29.36 in 10.0 mi NNE 15.0 mph - N/A   Clear
9:16 PM 1.4 °F -17.6 °F -2.2 °F 85% 29.37 in 10.0 mi NNE 15.0 mph - N/A   Clear
9:56 PM 1.4 °F -16.1 °F -2.2 °F 85% 29.38 in 10.0 mi NNE 12.7 mph - N/A   Overcast
10:16 PM 1.4 °F -16.1 °F -2.2 °F 85% 29.39 in 10.0 mi NNE 12.7 mph - N/A   Mostly Cloudy
10:36 PM 1.4 °F -16.1 °F -2.2 °F 85% 29.39 in 10.0 mi NNE 12.7 mph - N/A   Partly Cloudy
10:56 PM 1.4 °F -16.9 °F -2.2 °F 85% 29.40 in 10.0 mi NNE 13.8 mph - N/A   Clear
11:16 PM 1.4 °F -15.3 °F -2.2 °F 85% 29.40 in 10.0 mi NNE 11.5 mph - N/A   Clear
11:36 PM 1.4 °F -15.3 °F -2.2 °F 85% 29.41 in 10.0 mi NNE 11.5 mph - N/A   Scattered Clouds
11:56 PM 3.2 °F -15.9 °F -0.4 °F 85% 29.41 in 10.0 mi NNE 16.1 mph - N/A   Overcast